User: anonymous   Login
Location: UBC Liquid-Mirror Observatory
(49.2876°N, 122.5728°W)
Time: 05:09:59
(UTC-07:00)
Language:

Cosmos 1743 Rocket - Orbit

View from above orbital plane
View from above orbital plane
View from above satellite
View from above satellite

Ground track
Ground track

The orbit data is extracted from the following two-line orbital elements,

1 16720U 86034B   17085.74686650 +.00000117 +00000-0 +11312-4 0  9991
2 16720 082.5540 318.3651 0020698 017.8420 047.4888 14.83280303667040
Epoch (UTC): 26 March 2017 17:55:29
Eccentricity: 0.0020698
inclination: 82.5540°
perigee height: 604 km
apogee height: 633 km
right ascension of ascending node: 318.3651°
argument of perigee: 17.8420°
revolutions per day: 14.83280303
mean anomaly at epoch: 47.4888°
orbit number at epoch: 66704

The dashed part of the orbit path shows where the satellite is in the earth's shadow,  

DLR